Weather in Ashkovo

Russia / Smolensk Oblast     55°35′53″N   34°58′58″E
temp.,
°C
wind,
m/s
gust,
m/s
humid.,
%
clouds,
%
prec.,
mm/h
press.,
hPa
HPBL,
m
15 may, sat
sat1500:00+12ese499754 0.3 1009233
03:00+11ese4898100 0.3 1008164
06:00+12sse399691 0.0 1007212
09:00+17ssw57785 0.0 1007497
12:00+20s67637 0.4 10071432
15:00+20ssw685778 1.3 10071834
18:00+17ssw58785 1.4 1007776
21:00+13ssw411935 3.4 1008285
16 may, sun
sun1600:00+12ssw512969 0.1 1009369
03:00+11s5119798 0.1 1010292
06:00+11s5119684 0.0 1010322
09:00+15ssw698228 0.0 1011668
12:00+17sw677491 0.9 10121172
15:00+18wsw567387 2.6 10121192
18:00+18w35753 0.1 1012661
21:00+14sse22859 0.2 101313
17 may, mon
mon1700:00+13sse2289100 0.0 101417
03:00+12se3390100 0.0 101441
06:00+12ese379199 0.0 1014147
09:00+18se477445 0.0 1013415
12:00+22ese6862100 0.0 10111182
15:00+24ese61063100 0.0 10091488
18:00+23ese71269100 0.0 1007735
21:00+19se6147692 0.0 1006493
18 may, tue
tue1800:00+18se7167697 0.0 1005542
03:00+17se61483100 0.0 1004381
06:00+16se61586100 0.0 1003443
09:00+19se8158094 0.0 1002917
12:00+19s101475100 0.1 10041293
15:00+19ssw6107297 0.1 10051316
18:00+18s4779100 1.1 1006726
21:00+15s3389100 3.1 100654
19 may, wed
wed1900:00+13sse349476 0.0 100668
03:00+12ssw1195100 0.0 100610
06:00+13ene2293100 0.0 100478
09:00+16ese238782 1.2 1002319
12:00+16sw2288100 2.3 100197
15:00+11w101494100 6.7 1002656
18:00+9w91894100 2.1 1002945
21:00+10w81590100 4.6 1004803